Location: Newark
(46.7000°N, 60.6000°W)
Time: 23:45:24
(UTC+00:00)

Vanguard 3 - Pass Details

Date: 01 November 2020
Orbit: 508 x 3262 km, 33.3° (Epoch: 29 November)

Event Time Altitude Azimuth Distance (km) Brightness Sun altitude
Rises 08:18:03 0° 227° (SW) 5,700 - -25.6°
Reaches altitude 10° 08:21:36 10° 220° (SW) 5,022 - -25.0°
Exits shadow 08:22:24 12° 219° (SW) 4,885 10.7 -24.9°
Maximum altitude 08:36:01 43° 156° (SSE) 3,861 10.6 -22.5°
Drops below altitude 10° 08:53:49 10° 94° (E) 6,150 12.8 -19.5°
Sets 08:58:44 0° 89° (E) 7,041 13.6 -18.6°
